User: anonymous   Login
Location: Newark
(45.0667°N, 7.8333°E)
Time: 05:02:32
(UTC+00:00)
Language:

STRAND 1 - Orbit

View from above orbital plane
View from above orbital plane
View from above satellite
View from above satellite

Ground track
Ground track

The orbit data is extracted from the following two-line orbital elements,

1 39090U 13009E   19288.80153723  .00000015  00000-0  20430-4 0  9990
2 39090  98.4765 132.7037 0008193 299.2426  60.7940 14.35100452347476
Epoch (UTC): 15 October 2019 19:14:12
Eccentricity: 0.0008193
inclination: 98.4765°
perigee height: 769 km
apogee height: 780 km
right ascension of ascending node: 132.7037°
argument of perigee: 299.2426°
revolutions per day: 14.35100452
mean anomaly at epoch: 60.7940°
orbit number at epoch: 34747

The dashed part of the orbit path shows where the satellite is in the earth's shadow,  

DLR